This is the latest recevied weather packets stored in our database for station/object DB0RV-13. If no packets are shown the sender has not sent any weather packets the latest 10 day(s).
| Time | Temp. | Humidity | Pressure | Rain* | Wind** | Luminosity | Snow |
|---|---|---|---|---|---|---|---|
| 1777815902 | 22.78° C | 31% | 1012.6 hPa | - | - | - | - |
| 1777815601 | 22.78° C | 29% | 1012.5 hPa | - | - | - | - |
| 1777815302 | 22.78° C | 30% | 1012.7 hPa | - | - | - | - |
| 1777815001 | 23.33° C | 30% | 1012.7 hPa | - | - | - | - |
| 1777814701 | 22.78° C | 29% | 1012.8 hPa | - | - | - | - |
| 1777814402 | 22.78° C | 29% | 1012.8 hPa | - | - | - | - |
| 1777814101 | 23.33° C | 29% | 1012.9 hPa | - | - | - | - |
| 1777813802 | 23.33° C | 31% | 1013 hPa | - | - | - | - |
| 1777813505 | 22.78° C | 28% | 1013.1 hPa | - | - | - | - |
| 1777813201 | 23.33° C | 30% | 1013.1 hPa | - | - | - | - |
| 1777812910 | 22.22° C | 30% | 1013.1 hPa | - | - | - | - |
| 1777812606 | 22.78° C | 33% | 1013.1 hPa | - | - | - | - |
| 1777812302 | 22.22° C | 31% | 1013.2 hPa | - | - | - | - |
| 1777812004 | 22.22° C | 31% | 1013.3 hPa | - | - | - | - |
| 1777811702 | 22.78° C | 30% | 1013.2 hPa | - | - | - | - |
| 1777811402 | 22.78° C | 30% | 1013.3 hPa | - | - | - | - |
| 1777811101 | 22.78° C | 29% | 1013.3 hPa | - | - | - | - |
| 1777810802 | 22.78° C | 32% | 1013.4 hPa | - | - | - | - |
| 1777810501 | 22.22° C | 29% | 1013.4 hPa | - | - | - | - |
| 1777810202 | 23.33° C | 30% | 1013.5 hPa | - | - | - | - |
| 1777809902 | 22.22° C | 33% | 1013.5 hPa | - | - | - | - |
| 1777809602 | 21.67° C | 37% | 1013.6 hPa | - | - | - | - |
| 1777809301 | 21.11° C | 35% | 1013.6 hPa | - | - | - | - |
| 1777809002 | 21.67° C | 38% | 1013.7 hPa | - | - | - | - |
| 1777808701 | 21.67° C | 37% | 1013.7 hPa | - | - | - | - |
* Rain since midnight (hover to see other rain measurements)
** Current wind speed in m/s (hover to see current wind gust speed)